Location: Buch
(49.7331°N, 12.1098°E)
Time: 00:27:23
(UTC+00:00)

Cosmos 1461 - Pass Details

Date: 12 May 2021
Orbit: 510 x 653 km, 65.0° (Epoch: 23 June)

Event Time Altitude Azimuth Distance (km) Brightness Sun altitude
Exits shadow 23:11:44 23° 254° (WSW) 1,381 4.7 -21.9°
Maximum altitude 23:14:20 47° 317° (NW) 861 4.0 -21.9°
Drops below altitude 10° 23:18:46 10° 31° (NNE) 2,019 6.5 -21.8°
Sets 23:21:06 0° 38° (NE) 2,909 7.4 -21.8°
